Overview Statistics Trail Chart Weather Telemetry Raw packets
 

This is the latest recevied weather packets stored in our database for station/object N7IGG. If no packets are shown the sender has not sent any weather packets the latest 10 day(s).

<< 23 24 25 26 27 28 29 >>
Time Temp. Humidity Pressure Rain* Wind** Luminosity Snow
1778026413 17.22° C 77% 1015.4 hPa 0 mm - 323 W/m² -
1778026110 16.11° C 78% 1015.5 hPa 0 mm - 354 W/m² -
1778025808 16.67° C 77% 1015.4 hPa 0 mm - 340 W/m² -
1778025504 16.67° C 79% 1015.7 hPa 0 mm - 412 W/m² -
1778025202 16.11° C 79% 1015.6 hPa 0 mm - 401 W/m² -
1778024899 16.67° C 78% 1015.8 hPa 0 mm - 446 W/m² -
1778024596 16.67° C 78% 1015.7 hPa 0 mm - 433 W/m² -
1778024293 16.67° C 77% 1015.7 hPa 0 mm - 454 W/m² -
1778023991 17.22° C 78% 1015.8 hPa 0 mm - 484 W/m² -
1778023688 16.67° C 76% 1015.9 hPa 0 mm - 390 W/m² -
1778023386 16.67° C 78% 1015.9 hPa 0 mm - 531 W/m² -
1778023082 16.11° C 80% 1016 hPa 0 mm - 492 W/m² -
1778022781 16.11° C 79% 1016.1 hPa 0 mm - 339 W/m² -
1778022478 16.67° C 79% 1015.9 hPa 0 mm - 416 W/m² -
1778022175 16.67° C 80% 1015.9 hPa 0 mm - 269 W/m² -
1778021872 16.11° C 80% 1016.1 hPa 0 mm - 259 W/m² -
1778021569 15.56° C 80% 1016.2 hPa 0 mm - 243 W/m² -
1778021263 16.11° C 81% 1016.1 hPa 0 mm - 223 W/m² -
1778020962 15.56° C 80% 1016.3 hPa 0 mm - 256 W/m² -
1778020659 15.56° C 81% 1016.1 hPa 0 mm - 220 W/m² -
1778020355 15.56° C 81% 1016.3 hPa 0 mm - 214 W/m² -
1778020051 15.56° C 81% 1016.5 hPa 0 mm - 225 W/m² -
1778019747 15.56° C 81% 1016.5 hPa 0 mm - 198 W/m² -
1778019445 15.56° C 82% 1016.4 hPa 0 mm - 209 W/m² -
1778019141 15.56° C 81% 1016.4 hPa 0 mm - 212 W/m² -

* Rain latest hour (hover to see other rain measurements)
** Current wind speed in m/s (hover to see current wind gust speed)